PGT47HW LTFE-LTFJ

Flight info

Callsign PGT47HW
Flight time 0h 58m
Altitude 32000
Route KAVAK UW95 KUXIL DCT BAGLU DCT ATGIT UT30 SIVKU UL610 ETAMP
Aircraft A21N/M-SDE2E3FGHIRWXY/LB1

Departure

Time 2026-05-07 13:38
Airport Milas Bodrum International Airport (LTFE)

Arrival

Time 2026-05-07 14:37
Airport Istanbul Sabiha Gökçen International Airport (LTFJ)
Time Latitude Longitude Altitude Speed Heading
2026-05-07 13:09 37.24577 27.66957 30 ft 0 kts 197°
2026-05-07 13:29 37.24594 27.66964 30 ft 4 kts 196°
2026-05-07 13:29 37.24620 27.66972 29 ft 4 kts 191°
2026-05-07 13:30 37.24646 27.66976 30 ft 4 kts 169°
2026-05-07 13:30 37.24664 27.66966 30 ft 2 kts 108°
2026-05-07 13:30 37.24664 27.66963 30 ft 0 kts 107°
2026-05-07 13:32 37.24664 27.66964 30 ft 0 kts 107°
2026-05-07 13:33 37.24658 27.66992 30 ft 7 kts 107°
2026-05-07 13:33 37.24640 27.67065 30 ft 9 kts 107°
2026-05-07 13:33 37.24623 27.67136 30 ft 8 kts 106°
2026-05-07 13:33 37.24608 27.67204 30 ft 9 kts 106°
2026-05-07 13:34 37.24583 27.67309 30 ft 16 kts 107°
2026-05-07 13:34 37.24524 27.67555 30 ft 13 kts 107°
2026-05-07 13:34 37.24500 27.67657 30 ft 11 kts 107°
2026-05-07 13:35 37.24478 27.67748 30 ft 12 kts 107°
2026-05-07 13:35 37.24456 27.67842 30 ft 11 kts 107°
2026-05-07 13:35 37.24435 27.67927 30 ft 9 kts 107°
2026-05-07 13:35 37.24427 27.68001 30 ft 8 kts 77°
2026-05-07 13:36 37.24465 27.68049 30 ft 9 kts 23°
2026-05-07 13:36 37.24538 27.68075 30 ft 11 kts 15°
2026-05-07 13:36 37.24608 27.68101 29 ft 10 kts 17°
2026-05-07 13:36 37.24668 27.68124 30 ft 8 kts 17°
2026-05-07 13:37 37.24726 27.68127 29 ft 8 kts 334°
2026-05-07 13:37 37.24743 27.68085 30 ft 0 kts 285°
2026-05-07 13:37 37.24745 27.68077 30 ft 6 kts 285°
2026-05-07 13:37 37.24825 27.67742 29 ft 74 kts 287°
2026-05-07 13:38 37.25032 27.66883 29 ft 129 kts 286°
2026-05-07 13:38 37.25339 27.65625 58 ft 168 kts 288°
2026-05-07 13:38 37.25702 27.64262 698 ft 163 kts 286°
2026-05-07 13:38 37.26026 27.62906 1361 ft 162 kts 284°
2026-05-07 13:39 37.26342 27.61539 1898 ft 167 kts 284°
2026-05-07 13:39 37.26564 27.60576 2124 ft 179 kts 285°
2026-05-07 13:39 37.26687 27.59993 2190 ft 185 kts 281°
2026-05-07 13:39 37.27039 27.58359 2341 ft 204 kts 285°
2026-05-07 13:40 37.27459 27.56570 2462 ft 224 kts 285°
2026-05-07 13:40 37.27930 27.54611 2808 ft 248 kts 285°
2026-05-07 13:40 37.28447 27.52470 3590 ft 258 kts 287°
2026-05-07 13:40 37.28962 27.50333 4452 ft 259 kts 288°
2026-05-07 13:41 37.29305 27.48116 5341 ft 263 kts 269°
2026-05-07 13:41 37.28854 27.45882 6012 ft 269 kts 240°
2026-05-07 13:41 37.27608 27.44128 6586 ft 278 kts 213°
2026-05-07 13:41 37.25799 27.43199 7052 ft 286 kts 195°
2026-05-07 13:42 37.23869 27.42508 7682 ft 291 kts 195°
2026-05-07 13:42 37.21914 27.41802 8349 ft 294 kts 196°
2026-05-07 13:42 37.19938 27.41089 9028 ft 297 kts 194°
2026-05-07 13:42 37.17872 27.40909 9681 ft 302 kts 170°
2026-05-07 13:43 37.15918 27.41841 10287 ft 304 kts 144°
2026-05-07 13:43 37.14411 27.43778 10467 ft 322 kts 117°
2026-05-07 13:43 37.13565 27.46450 10592 ft 340 kts 107°
2026-05-07 13:43 37.12800 27.49336 10798 ft 357 kts 107°
2026-05-07 13:44 37.12009 27.52324 11289 ft 364 kts 107°
2026-05-07 13:44 37.11198 27.55346 11895 ft 369 kts 107°
2026-05-07 13:44 37.10367 27.58406 12514 ft 373 kts 107°
2026-05-07 13:44 37.09517 27.61502 13119 ft 378 kts 107°
2026-05-07 13:45 37.08664 27.64587 14035 ft 370 kts 108°
2026-05-07 13:45 37.07825 27.67614 14794 ft 368 kts 107°
2026-05-07 13:45 37.07117 27.70699 15376 ft 370 kts 100°
2026-05-07 13:45 37.06577 27.73868 15946 ft 374 kts 100°
2026-05-07 13:46 37.06029 27.77071 16518 ft 378 kts 100°
2026-05-07 13:46 37.05469 27.80308 17039 ft 383 kts 100°
2026-05-07 13:46 37.04900 27.83581 17551 ft 387 kts 100°
2026-05-07 13:46 37.04534 27.86916 18056 ft 388 kts 86°
2026-05-07 13:47 37.04932 27.90236 18528 ft 386 kts 68°
2026-05-07 13:47 37.05987 27.93316 19000 ft 385 kts 61°
2026-05-07 13:47 37.07143 27.96383 19307 ft 395 kts 61°
2026-05-07 13:47 37.08346 27.99545 19455 ft 408 kts 61°
2026-05-07 13:48 37.09574 28.02773 19823 ft 413 kts 62°
2026-05-07 13:48 37.10815 28.06050 20243 ft 417 kts 61°
2026-05-07 13:48 37.12054 28.09350 20712 ft 420 kts 61°
2026-05-07 13:48 37.13295 28.12673 21176 ft 422 kts 62°
2026-05-07 13:49 37.14538 28.16017 21649 ft 424 kts 62°
2026-05-07 13:49 37.15363 28.18238 21940 ft 426 kts 62°
2026-05-07 13:49 37.16618 28.21617 22395 ft 429 kts 62°
2026-05-07 13:49 37.17881 28.25013 22860 ft 431 kts 62°
2026-05-07 13:50 37.19153 28.28430 23302 ft 434 kts 62°
2026-05-07 13:50 37.20433 28.31868 23755 ft 436 kts 62°
2026-05-07 13:50 37.22156 28.36491 24225 ft 439 kts 62°
2026-05-07 13:50 37.23013 28.38799 24471 ft 441 kts 62°
2026-05-07 13:51 37.24309 28.42299 24816 ft 443 kts 62°
2026-05-07 13:51 37.25610 28.45815 25149 ft 445 kts 62°
2026-05-07 13:51 37.26919 28.49354 25471 ft 447 kts 62°
2026-05-07 13:51 37.28232 28.52903 25791 ft 449 kts 61°
2026-05-07 13:52 37.29550 28.56470 26105 ft 451 kts 61°
2026-05-07 13:52 37.30872 28.60056 26436 ft 453 kts 61°
2026-05-07 13:52 37.32199 28.63661 26756 ft 455 kts 61°
2026-05-07 13:52 37.33529 28.67278 27073 ft 457 kts 61°
2026-05-07 13:53 37.34924 28.70813 27340 ft 456 kts 55°
2026-05-07 13:53 37.36732 28.74132 27645 ft 452 kts 46°
2026-05-07 13:53 37.38866 28.77010 27947 ft 449 kts 39°
2026-05-07 13:53 37.41150 28.79707 28231 ft 451 kts 39°
2026-05-07 13:54 37.43437 28.82415 28515 ft 453 kts 39°
2026-05-07 13:54 37.45706 28.85105 28801 ft 455 kts 38°
2026-05-07 13:54 37.48014 28.87842 29070 ft 456 kts 38°
2026-05-07 13:54 37.50325 28.90592 29341 ft 458 kts 39°
2026-05-07 13:55 37.52643 28.93355 29620 ft 460 kts 38°
2026-05-07 13:55 37.54974 28.96134 29933 ft 460 kts 38°
2026-05-07 13:55 37.57293 28.98906 30320 ft 459 kts 38°
2026-05-07 13:55 37.59607 29.01680 30645 ft 458 kts 38°
2026-05-07 13:56 37.61912 29.04441 30972 ft 457 kts 38°
2026-05-07 13:56 37.64218 29.07201 31299 ft 456 kts 38°
2026-05-07 13:56 37.66515 29.09950 31624 ft 455 kts 38°
2026-05-07 13:56 37.68808 29.12695 31972 ft 454 kts 38°
2026-05-07 13:57 37.71105 29.15446 32134 ft 453 kts 38°
2026-05-07 13:57 37.75604 29.20851 32169 ft 443 kts 38°
2026-05-07 13:58 37.80057 29.26213 32171 ft 441 kts 38°
2026-05-07 13:58 37.84493 29.31571 32173 ft 440 kts 38°
2026-05-07 13:59 37.88924 29.36920 32177 ft 440 kts 38°
2026-05-07 13:59 37.93343 29.42264 32180 ft 439 kts 38°
2026-05-07 14:00 37.97753 29.47613 32186 ft 439 kts 38°
2026-05-07 14:00 38.02156 29.52961 32189 ft 438 kts 38°
2026-05-07 14:01 38.06561 29.58308 32189 ft 438 kts 38°
2026-05-07 14:01 38.10952 29.63658 32184 ft 437 kts 38°
2026-05-07 14:02 38.15341 29.69002 32173 ft 436 kts 36°
2026-05-07 14:02 38.20318 29.73074 32170 ft 419 kts 17°
2026-05-07 14:03 38.25872 29.74751 32166 ft 407 kts 359°
2026-05-07 14:03 38.31505 29.74733 32164 ft 404 kts 355°
2026-05-07 14:04 38.37136 29.74654 32154 ft 405 kts 355°
2026-05-07 14:04 38.42773 29.74581 32154 ft 405 kts 355°
2026-05-07 14:05 38.48412 29.74511 32157 ft 405 kts 355°
2026-05-07 14:05 38.54051 29.74426 32166 ft 405 kts 355°
2026-05-07 14:06 38.59694 29.74337 32174 ft 405 kts 355°
2026-05-07 14:06 38.65334 29.74257 32171 ft 405 kts 355°
2026-05-07 14:07 38.70973 29.74175 32172 ft 405 kts 355°
2026-05-07 14:07 38.76619 29.74091 32166 ft 405 kts 355°
2026-05-07 14:08 38.82260 29.74009 32168 ft 406 kts 355°
2026-05-07 14:08 38.87908 29.73931 32159 ft 405 kts 355°
2026-05-07 14:09 38.93512 29.73846 32154 ft 405 kts 355°
2026-05-07 14:09 38.99155 29.73758 32155 ft 406 kts 355°
2026-05-07 14:10 39.04804 29.73666 32142 ft 406 kts 355°
2026-05-07 14:10 39.10450 29.73583 32140 ft 406 kts 355°
2026-05-07 14:11 39.16097 29.73513 32140 ft 406 kts 355°
2026-05-07 14:11 39.21743 29.73434 32142 ft 406 kts 355°
2026-05-07 14:12 39.27389 29.73343 32139 ft 406 kts 355°
2026-05-07 14:12 39.33033 29.73255 32125 ft 406 kts 355°
2026-05-07 14:13 39.38477 29.73185 32131 ft 406 kts 355°
2026-05-07 14:13 39.44127 29.73106 32132 ft 406 kts 355°
2026-05-07 14:14 39.49781 29.73018 32130 ft 406 kts 355°
2026-05-07 14:14 39.55430 29.72935 32125 ft 406 kts 355°
2026-05-07 14:15 39.60914 29.71696 32121 ft 399 kts 340°
2026-05-07 14:15 39.66201 29.69500 32117 ft 399 kts 340°
2026-05-07 14:16 39.71501 29.67318 32118 ft 399 kts 340°
2026-05-07 14:16 39.76795 29.65143 32116 ft 399 kts 340°
2026-05-07 14:17 39.82104 29.62961 31872 ft 401 kts 340°
2026-05-07 14:17 39.84758 29.61869 31608 ft 399 kts 340°
2026-05-07 14:17 39.87382 29.60786 31183 ft 394 kts 340°
2026-05-07 14:17 39.89987 29.59705 30682 ft 391 kts 340°
2026-05-07 14:18 39.92566 29.58630 30193 ft 388 kts 340°
2026-05-07 14:18 39.95124 29.57566 29662 ft 384 kts 340°
2026-05-07 14:18 39.97657 29.56517 29188 ft 379 kts 340°
2026-05-07 14:18 40.00158 29.55483 28716 ft 375 kts 340°
2026-05-07 14:19 40.02629 29.54456 28257 ft 371 kts 340°
2026-05-07 14:19 40.05075 29.53437 27800 ft 367 kts 340°
2026-05-07 14:19 40.07487 29.52430 27347 ft 362 kts 340°
2026-05-07 14:19 40.09750 29.51483 26921 ft 359 kts 340°
2026-05-07 14:20 40.12115 29.50494 26488 ft 355 kts 340°
2026-05-07 14:20 40.14457 29.49517 26065 ft 351 kts 341°
2026-05-07 14:20 40.16830 29.48828 25662 ft 350 kts 352°
2026-05-07 14:20 40.19261 29.48823 25235 ft 350 kts
2026-05-07 14:21 40.21646 29.49496 24778 ft 356 kts 15°
2026-05-07 14:21 40.23961 29.50885 24272 ft 374 kts 27°
2026-05-07 14:21 40.26097 29.52882 23745 ft 379 kts 32°
2026-05-07 14:21 40.28197 29.54956 23160 ft 377 kts 32°
2026-05-07 14:22 40.30283 29.57024 22645 ft 375 kts 32°
2026-05-07 14:22 40.32357 29.59083 22130 ft 373 kts 32°
2026-05-07 14:22 40.34422 29.61130 21617 ft 371 kts 33°
2026-05-07 14:22 40.36452 29.63142 21119 ft 369 kts 33°
2026-05-07 14:23 40.38494 29.65166 20609 ft 368 kts 33°
2026-05-07 14:23 40.40532 29.67186 20101 ft 367 kts 33°
2026-05-07 14:23 40.42565 29.69199 19613 ft 365 kts 33°
2026-05-07 14:23 40.44558 29.71179 19469 ft 353 kts 33°
2026-05-07 14:24 40.46487 29.73096 19267 ft 344 kts 33°
2026-05-07 14:24 40.48384 29.74978 18911 ft 340 kts 33°
2026-05-07 14:24 40.50263 29.76845 18533 ft 338 kts 33°
2026-05-07 14:24 40.52132 29.78705 18134 ft 336 kts 33°
2026-05-07 14:25 40.53991 29.80553 17680 ft 334 kts 33°
2026-05-07 14:25 40.55829 29.82379 17385 ft 329 kts 34°
2026-05-07 14:25 40.57627 29.84169 17135 ft 318 kts 33°
2026-05-07 14:25 40.59366 29.85905 16610 ft 311 kts 34°
2026-05-07 14:26 40.61087 29.87627 16009 ft 308 kts 34°
2026-05-07 14:26 40.62786 29.89325 15432 ft 306 kts 34°
2026-05-07 14:26 40.64482 29.91013 14840 ft 304 kts 32°
2026-05-07 14:26 40.66346 29.92227 14351 ft 299 kts 13°
2026-05-07 14:27 40.68429 29.92493 13647 ft 306 kts 351°
2026-05-07 14:27 40.70417 29.91670 13467 ft 295 kts 333°
2026-05-07 14:27 40.72243 29.90485 13212 ft 291 kts 333°
2026-05-07 14:27 40.74049 29.89305 12856 ft 288 kts 333°
2026-05-07 14:28 40.75726 29.87902 12480 ft 285 kts 317°
2026-05-07 14:28 40.77117 29.86051 11951 ft 284 kts 314°
2026-05-07 14:28 40.78416 29.84267 11467 ft 282 kts 314°
2026-05-07 14:28 40.79765 29.82392 10977 ft 280 kts 314°
2026-05-07 14:29 40.81100 29.80534 10513 ft 277 kts 313°
2026-05-07 14:29 40.82403 29.78724 10164 ft 267 kts 313°
2026-05-07 14:29 40.83676 29.76958 9608 ft 263 kts 313°
2026-05-07 14:29 40.84925 29.75221 9086 ft 258 kts 313°
2026-05-07 14:30 40.86137 29.73534 8692 ft 247 kts 313°
2026-05-07 14:30 40.87307 29.71908 8247 ft 242 kts 313°
2026-05-07 14:30 40.88065 29.70853 7964 ft 235 kts 312°
2026-05-07 14:30 40.89559 29.68775 7342 ft 232 kts 312°
2026-05-07 14:31 40.90292 29.67755 7116 ft 231 kts 312°
2026-05-07 14:31 40.91390 29.66223 6794 ft 228 kts 311°
2026-05-07 14:31 40.92476 29.64701 6487 ft 227 kts 311°
2026-05-07 14:31 40.93554 29.63188 6141 ft 224 kts 311°
2026-05-07 14:32 40.94605 29.61720 5789 ft 218 kts 311°
2026-05-07 14:32 40.95649 29.60262 5307 ft 219 kts 311°
2026-05-07 14:32 40.96690 29.58805 4819 ft 218 kts 310°
2026-05-07 14:32 40.97448 29.57125 4525 ft 212 kts 285°
2026-05-07 14:33 40.97521 29.55205 4245 ft 211 kts 258°
2026-05-07 14:33 40.96970 29.53395 3973 ft 214 kts 245°
2026-05-07 14:33 40.96312 29.51606 3633 ft 217 kts 245°
2026-05-07 14:33 40.95650 29.49798 3333 ft 221 kts 245°
2026-05-07 14:34 40.94986 29.47980 2989 ft 215 kts 244°
2026-05-07 14:34 40.94349 29.46245 2671 ft 202 kts 244°
2026-05-07 14:34 40.93748 29.44599 2347 ft 196 kts 244°
2026-05-07 14:34 40.93167 29.43012 2074 ft 185 kts 245°
2026-05-07 14:35 40.92638 29.41572 1789 ft 163 kts 246°
2026-05-07 14:35 40.92162 29.40272 1528 ft 150 kts 245°
2026-05-07 14:35 40.91716 29.39055 1311 ft 146 kts 245°
2026-05-07 14:35 40.91280 29.37867 1078 ft 143 kts 246°
2026-05-07 14:36 40.90848 29.36691 874 ft 142 kts 244°
2026-05-07 14:36 40.90411 29.35501 653 ft 145 kts 245°
2026-05-07 14:36 40.89973 29.34305 407 ft 143 kts 244°
2026-05-07 14:36 40.89554 29.33161 292 ft 128 kts 244°
2026-05-07 14:37 40.89291 29.32448 303 ft 48 kts 244°
2026-05-07 14:37 40.89121 29.31902 304 ft 20 kts 265°
2026-05-07 14:37 40.89126 29.31743 302 ft 14 kts 274°
2026-05-07 14:38 40.89133 29.31616 301 ft 13 kts 274°
2026-05-07 14:38 40.89140 29.31507 301 ft 11 kts 277°
2026-05-07 14:38 40.89170 29.31442 300 ft 8 kts 326°
2026-05-07 14:38 40.89219 29.31434 302 ft 8 kts 16°
2026-05-07 14:39 40.89270 29.31471 301 ft 9 kts 10°
2026-05-07 14:39 40.89342 29.31437 301 ft 11 kts 333°
2026-05-07 14:39 40.89400 29.31400 303 ft 8 kts 334°
2026-05-07 14:39 40.89464 29.31359 306 ft 14 kts 334°
2026-05-07 14:40 40.89556 29.31299 309 ft 14 kts 334°
2026-05-07 14:40 40.89633 29.31249 311 ft 11 kts 334°
2026-05-07 14:40 40.89702 29.31205 311 ft 11 kts 334°
2026-05-07 14:40 40.89761 29.31153 311 ft 10 kts 318°
2026-05-07 14:41 40.89816 29.31106 311 ft 9 kts 335°
2026-05-07 14:41 40.89888 29.31067 311 ft 13 kts 343°
2026-05-07 14:41 40.89973 29.31027 311 ft 13 kts 334°
2026-05-07 14:41 40.90050 29.30989 311 ft 11 kts 356°
2026-05-07 14:42 40.90108 29.31040 311 ft 10 kts 57°
2026-05-07 14:42 40.90141 29.31128 311 ft 14 kts 64°
2026-05-07 14:42 40.90186 29.31249 311 ft 14 kts 64°
2026-05-07 14:42 40.90228 29.31363 310 ft 13 kts 64°
2026-05-07 14:43 40.90277 29.31496 311 ft 17 kts 64°
2026-05-07 14:43 40.90326 29.31628 311 ft 15 kts 64°
2026-05-07 14:43 40.90370 29.31750 311 ft 14 kts 64°
2026-05-07 14:43 40.90411 29.31860 311 ft 13 kts 64°
2026-05-07 14:44 40.90448 29.31958 311 ft 11 kts 59°
2026-05-07 14:44 40.90507 29.31986 311 ft 9 kts 343°
2026-05-07 14:44 40.90559 29.31952 311 ft 8 kts 333°
2026-05-07 14:44 40.90603 29.31912 311 ft 7 kts 306°
2026-05-07 14:45 40.90603 29.31853 310 ft 6 kts 249°
2026-05-07 14:45 40.90613 29.31809 310 ft 5 kts 315°
2026-05-07 14:45 40.90641 29.31788 311 ft 5 kts 333°
2026-05-07 14:45 40.90670 29.31769 311 ft 4 kts 334°
2026-05-07 14:46 40.90679 29.31763 311 ft 0 kts 334°
2026-05-07 14:46 40.90680 29.31763 311 ft 0 kts 334°